Flag for Germany Weather past 2 weeks in Papenburg, Lower Saxony, Germany

Now
55 °F

Fog.


Feels Like: 55 °F
Forecast: 55 / 67 °F
Wind: 2 mph from South

Location: Emden-Koenigspolder

Current Time: Oct 1, 2014 at 7:43:34 AM

Latest Report: Oct 1, 2014 at 7:00 AM


Visibility: 1 mi

Pressure: 30.24 "Hg

Humidity: 98%

Dew point: 54 °F

Location of PapenburgLocation

Historic Weather in Papenburg — Graph

°F

Papenburg temperature yesterday

Maximum temperature yesterday: 68 °F (at 2:00 PM)
Minimum temperature yesterday: 59 °F (at 11:00 PM)
Average temperature yesterday: 63 °F

Past Weeks' High & Low Weather Summary

 TemperatureHumidityPressure
High77 °F (Sep 19, 4:00 PM)100% (Sep 16, 7:00 AM)30.36 "Hg (Sep 16, 7:00 AM)
Low47 °F (Sep 23, 5:00 AM)48% (Sep 22, 4:00 PM)29.74 "Hg (Sep 24, 5:00 PM)
Average60 °F80%30.04 "Hg
* Reported Sep 16 7:00 AM — Oct 1 7:00 AM, Papenburg, Weather by CustomWeather, © 2014

Note: Actual official high and low records may vary slightly from our data, if they occured in-between our weather recording intervals... More about our weather records

Advertising

Papenburg weather history for previous 24 hours

 ConditionsComfort  
Time TempWeatherWind HumidityBarometerVisibility
7:00 AM
Oct 1
55 °FFog.2 mph98%30.24 "Hg1 mi
6:00 AM56 °FFog.2 mph97%30.24 "Hg1 mi
5:00 AM56 °FFog.1 mph98%30.25 "Hg1 mi
4:00 AM57 °FFog.1 mph96%30.25 "Hg2 mi
3:00 AM55 °FPassing clouds.2 mph98%30.25 "Hg1 mi
2:00 AM56 °FFog.1 mph96%30.25 "Hg1 mi
1:00 AM56 °FFog.2 mph94%30.25 "Hg2 mi
12:00 AM58 °FFog.2 mph89%30.24 "Hg4 mi
11:00 PM
Sep 30
59 °FFog.3 mph86%30.24 "Hg4 mi
10:00 PM61 °FFog.2 mph84%30.24 "Hg4 mi
9:00 PM62 °FFog.3 mph82%30.24 "Hg4 mi
8:00 PM63 °FFog.3 mph81%30.23 "Hg4 mi
7:00 PM63 °FOvercast.5 mph80%30.22 "Hg5 mi
6:00 PM65 °FFog.3 mph84%30.20 "Hg4 mi
5:00 PM67 °FOvercast.3 mph75%30.20 "Hg6 mi
4:00 PM67 °FOvercast.5 mph71%30.20 "Hg8 mi
3:00 PM68 °FOvercast.6 mph68%30.20 "Hg6 mi
2:00 PM68 °FPartly sunny.6 mph69%30.19 "Hg8 mi
1:00 PM67 °FOvercast.5 mph75%30.19 "Hg6 mi
12:00 PM65 °FFog.5 mph85%30.19 "Hg3 mi
10:00 AM62 °FFog.3 mph94%30.17 "Hg2 mi
9:00 AM61 °FFog.3 mph95%30.16 "Hg2 mi
8:00 AM61 °FLow clouds.2 mph96%30.15 "Hg2 mi
7:00 AM61 °FLow clouds.3 mph96%30.15 "Hg2 mi
Weather by CustomWeather, © 2014

See weather overviewHow to use our weather pages